CXO

Last updated on Jan. 7, 2020, 4:36 a.m. UTC

1 25867U 99040B   20007.84510028  .00000630  00000-0  00000+0 0  9995
2 25867  65.0303 271.1294 7489437 230.2672 359.9053  0.37800418 19585
UTC
Height (km)
Latitude
Longitude
Inclination
Orbital Period
UTC large
Height (km)
Speed (km/s)
/
Latitude / Longitude
Inclination (degrees)
Orbital Period (minutes)
Azimuth
Elevation
Range (km)
Doppler Factor
iOS Compass Heading
iOS Angle

Next 30 passes for location: Hong Kong

Rise time Rise Azimuth (degrees) Set time Set Azimuth (degrees) Duration Max altitude (degrees)

No matching passes for this satellites